This demonstration page uses our WeatherBlox Daily Observations layout. Learn more.

Left ArrowRight Arrow

Hourly Observations for December 7, 2022

Temp ( °F °C ) Dew Point ( °F °C ) Humidity (%) Winds ( mph kmh ) Pressure ( in mb ) Visibility ( mi km ) Precip ( " mm )
12:54 am 00:54 Clear 20 -6.7 13 -10.6 74 74 Calm 30.14 1021 9 14 0.00 0.00
1:54 am 01:54 Clear 19 -7.2 13 -10.6 77 77 Calm 30.16 1021 9 14 0.00 0.00
2:54 am 02:54 Clear 23 -5 17 -8.3 78 78 Calm 30.16 1021 10 16 0.00 0.00
3:54 am 03:54 Clear 22 -5.6 17 -8.3 81 81 S 8 13 30.16 1021 10 16 0.00 0.00
4:54 am 04:54 Clear 25 -3.9 19 -7.2 78 78 S 6 9 30.17 1022 10 16 0.00 0.00
5:54 am 05:54 Clear 23 -5 17 -8.3 78 78 SSE 5 7 30.18 1022 10 16 0.00 0.00
6:54 am 06:54 Clear 17 -8.3 13 -10.6 83 83 Calm 30.22 1023 10 16 0.00 0.00
7:54 am 07:54 Sunny 18 -7.8 15 -9.4 88 88 S 6 9 30.24 1024 8 13 0.00 0.00
8:54 am 08:54 Sunny 28 -2.2 20 -6.7 71 71 NNW 5 7 30.29 1026 8 13 0.00 0.00
9:54 am 09:54 Sunny 34 1.1 22 -5.6 61 61 NNW 6 9 30.32 1027 10 16 0.00 0.00
10:54 am 10:54 Sunny 38 3.3 22 -5.6 52 52 N 12 19 30.33 1027 10 16 0.00 0.00
11:54 am 11:54 Sunny 39 3.9 21 -6.1 48 48 N 16 26 30.33 1027 10 16 0.00 0.00
12:54 pm 12:54 Sunny 39 3.9 21 -6.1 48 48 N 17 28 30.32 1027 10 16 0.00 0.00
1:54 pm 13:54 Sunny 38 3.3 21 -6.1 50 50 N 17 28 30.32 1027 10 16 0.00 0.00
2:54 pm 14:54 Sunny 37 2.8 20 -6.7 50 50 NNE 13 20 30.36 1028 10 16 0.00 0.00
3:54 pm 15:54 Sunny 35 1.7 19 -7.2 52 52 NNE 15 24 30.36 1028 10 16 0.00 0.00
4:54 pm 16:54 Sunny 30 -1.1 18 -7.8 60 60 NNE 7 11 30.38 1029 10 16 0.00 0.00
5:54 pm 17:54 Clear 24 -4.4 16 -8.9 71 71 NNE 7 11 30.39 1029 10 16 0.00 0.00
6:54 pm 18:54 Clear 24 -4.4 17 -8.3 74 74 N 8 13 30.40 1029 9 14 0.00 0.00
7:54 pm 19:54 Clear 24 -4.4 18 -7.8 77 77 NNE 9 15 30.40 1030 9 14 0.00 0.00
8:54 pm 20:54 Clear 24 -4.4 18 -7.8 77 77 N 5 7 30.39 1029 9 14 0.00 0.00
9:54 pm 21:54 Clear 22 -5.6 17 -8.3 81 81 N 7 11 30.40 1029 8 13 0.00 0.00
10:54 pm 22:54 Clear 21 -6.1 17 -8.3 84 84 N 7 11 30.38 1029 7 11 0.00 0.00
11:54 pm 23:54 Clear 22 -5.6 18 -7.8 84 84 NNE 8 13 30.37 1029 8 13 0.00 0.00

Powered by AerisWeather